Weather in Zarechye

Russia / Kaliningrad Oblast     54°36′51″N   21°02′03″E
temp.,
°C
wind,
m/s
gust,
m/s
humid.,
%
clouds,
%
prec.,
mm/h
press.,
hPa
HPBL,
m
6 march, sat
sat623:00−2nw37847 0.1 1024209
02:00−3wnw35829 0.1 1026120
05:00−3wnw367633 0.0 1026152
08:00−2w357131 0.0 1026168
11:00+2wsw575424 0.0 10261295
14:00+4w694921 0.0 10241446
17:00+3wsw510540 0.0 10211264
20:00+1wsw6147024 0.0 1019893
7 march, sun
sun723:00+2w81676100 0.0 10161212
02:00+2w91781100 0.0 10131214
05:00+3w101786100 0.1 10111191
08:000nnw71196100 0.8 1011637
11:00+1wnw596798 0.1 10111048
14:00+1w688799 0.3 1011659
17:00+1wnw5975100 0.4 10101182
20:00−1w397179 0.4 1011270
8 march, mon
mon823:00−1nnw387646 0.0 1012534
02:00−2nw387568 0.1 1013674
05:00−1wnw4972100 0.0 1014694
08:00−2nnw6119286 0.5 1015807
11:000nnw71063100 0.3 10161469
14:00+1nnw71062100 0.4 10181424
17:00−1nnw6967100 0.1 10191211
20:00−3nnw497878 0.1 1021606
9 march, tue
tue923:00−4n37770 0.0 1022314
02:00−4nne22750 0.0 102394
05:00−4ne116965 0.0 102341
08:00−4sse126583 0.0 1024127
11:00−2s2248100 0.0 1024534
14:00+1ssw343795 0.0 1024902
17:000ssw244494 0.0 1022927
20:00−3s336070 0.0 102372
10 march, wed
wed1023:00−3ssw35650 0.0 1022119
02:00−4ssw37680 0.0 1022193
05:00−4ssw36740 0.0 1021164
08:00−4ssw36730 0.0 1021176
11:00+1sw35550 0.0 1021609
14:00+3sw45500 0.0 10201110
17:00+3ssw35550 0.0 1019857
20:00−1s36686 0.0 1018117